,,Stat6,,Stat2,,Stat8,,Stat9,,Stat10,,Wind1,,Wind1,
time,status,PA1M_AVG,status,PR1M_SUM,status,RH1M_AVG,status,SR1M_AVG,status,TA1M_AVG,status,W1dAve1m,status,W1sAve1m,
2004-04-11, 00:00:01,VALID,919.25,VALID,0,VALID,100,VALID,-0.0509425,VALID,20.1745,VALID,253,VALID,0.157158,
2004-04-11, 00:01:01,VALID,919.227,VALID,0,VALID,100,VALID,-0.0339617,VALID,20.1842,VALID,253,VALID,0.00308866,
2004-04-11, 00:02:00,VALID,919.217,VALID,0,VALID,100,VALID,-0.0679233,VALID,20.2068,VALID,253,VALID,0.0753348,
2004-04-11, 00:03:00,VALID,919.213,VALID,0,VALID,100,VALID,-0.0339617,VALID,20.2003,VALID,253,VALID,0,
2004-04-11, 00:04:01,VALID,919.192,VALID,0,VALID,100,VALID,-0.0509425,VALID,20.1457,VALID,253,VALID,0,
2004-04-11, 00:05:01,VALID,919.202,VALID,0,VALID,100,VALID,0,VALID,20.1106,VALID,253,VALID,0,
2004-04-11, 00:06:00,VALID,919.211,VALID,0,VALID,99.999,VALID,-0.0169808,VALID,20.0999,VALID,253,VALID,0,
2004-04-11, 00:07:01,VALID,919.202,VALID,0,VALID,99.9669,VALID,-0.0169808,VALID,20.0999,VALID,253,VALID,0,
2004-04-11, 00:08:00,VALID,919.205,VALID,0,VALID,99.9354,VALID,-0.0339617,VALID,20.084,VALID,253,VALID,0,
2004-04-11, 00:09:00,VALID,919.197,VALID,0,VALID,99.9138,VALID,-0.0339617,VALID,20.0801,VALID,253,VALID,0,
2004-04-11, 00:10:00,VALID,919.177,VALID,0,VALID,99.9176,VALID,-0.0339617,VALID,20.0967,VALID,253,VALID,0,
2004-04-11, 00:11:01,VALID,919.154,VALID,0,VALID,99.7726,VALID,0,VALID,20.0577,VALID,253,VALID,0,
2004-04-11, 00:12:00,VALID,919.142,VALID,0,VALID,99.718,VALID,-0.0509425,VALID,20.0614,VALID,253,VALID,0,
2004-04-11, 00:13:00,VALID,919.107,VALID,0,VALID,99.4344,VALID,-0.0339617,VALID,19.9939,VALID,253,VALID,0.220465,
2004-04-11, 00:14:00,VALID,919.075,VALID,0,VALID,99.2462,VALID,-0.0509425,VALID,19.9288,VALID,253,VALID,0.262463,
2004-04-11, 00:15:01,VALID,919.042,VALID,0,VALID,99.1839,VALID,-0.0169808,VALID,19.9131,VALID,253,VALID,0.0738281,
2004-04-11, 00:16:00,VALID,919.022,VALID,0,VALID,99.3734,VALID,-0.0169808,VALID,19.9126,VALID,253,VALID,0,
2004-04-11, 00:17:01,VALID,919.005,VALID,0,VALID,99.4242,VALID,-0.101885,VALID,19.9196,VALID,253,VALID,0.000181686,
2004-04-11, 00:18:00,VALID,918.997,VALID,0,VALID,99.5768,VALID,-0.0339617,VALID,19.9454,VALID,253,VALID,0.0950218,
2004-04-11, 00:19:00,VALID,918.983,VALID,0,VALID,99.7497,VALID,-0.0509425,VALID,19.9837,VALID,253,VALID,0,
2004-04-11, 00:20:00,VALID,918.981,VALID,0,VALID,99.7993,VALID,-0.0339617,VALID,20.0001,VALID,253,VALID,0,
2004-04-11, 00:21:00,VALID,918.975,VALID,0,VALID,99.5857,VALID,-0.0339617,VALID,19.9481,VALID,253,VALID,0,
2004-04-11, 00:22:00,VALID,918.975,VALID,0,VALID,99.3149,VALID,0,VALID,19.8741,VALID,253,VALID,0,
2004-04-11, 00:23:00,VALID,918.972,VALID,0,VALID,99.2793,VALID,-0.0509425,VALID,19.8354,VALID,253,VALID,0.00852273,
2004-04-11, 00:24:00,VALID,918.956,VALID,0,VALID,99.4306,VALID,-0.0169808,VALID,19.8324,VALID,255,VALID,0.332304,
2004-04-11, 00:25:00,VALID,918.944,VALID,0,VALID,99.6137,VALID,-0.0509425,VALID,19.8585,VALID,323,VALID,0.536519,
2004-04-11, 00:26:00,VALID,918.939,VALID,0,VALID,99.7968,VALID,-0.0849042,VALID,19.8905,VALID,354,VALID,0.422433,
2004-04-11, 00:27:01,VALID,918.932,VALID,0,VALID,99.8477,VALID,-0.0339617,VALID,19.9171,VALID,354,VALID,0.385538,
2004-04-11, 00:28:00,VALID,918.926,VALID,0,VALID,99.91,VALID,-0.0339617,VALID,19.9032,VALID,354,VALID,0.36756,
2004-04-11, 00:29:00,VALID,918.921,VALID,0,VALID,99.9669,VALID,-0.0169808,VALID,19.9131,VALID,354,VALID,0.281977,
2004-04-11, 00:30:00,VALID,918.886,VALID,0,VALID,100,VALID,-0.0169808,VALID,19.9101,VALID,354,VALID,0.345846,
2004-04-11, 00:31:00,VALID,918.865,VALID,0,VALID,100,VALID,-0.0509425,VALID,19.9034,VALID,354,VALID,0.217262,
2004-04-11, 00:32:00,VALID,918.856,VALID,0,VALID,100,VALID,-0.0169808,VALID,19.9104,VALID,354,VALID,0.00446429,
2004-04-11, 00:33:01,VALID,918.846,VALID,0,VALID,100,VALID,-0.0339617,VALID,19.9104,VALID,354,VALID,0,
2004-04-11, 00:34:00,VALID,918.831,VALID,0,VALID,100,VALID,0,VALID,19.9032,VALID,354,VALID,0,
2004-04-11, 00:35:00,VALID,918.821,VALID,0,VALID,100,VALID,-0.0169808,VALID,19.891,VALID,354,VALID,0,
2004-04-11, 00:36:00,VALID,918.817,VALID,0,VALID,100,VALID,0,VALID,19.8351,VALID,354,VALID,0,
2004-04-11, 00:37:00,VALID,918.808,VALID,0,VALID,100,VALID,-0.0339617,VALID,19.8269,VALID,354,VALID,0,
2004-04-11, 00:38:00,VALID,918.798,VALID,0,VALID,100,VALID,-0.0509425,VALID,19.8068,VALID,354,VALID,0,
2004-04-11, 00:39:00,VALID,918.791,VALID,0,VALID,100,VALID,-0.0509425,VALID,19.8103,VALID,354,VALID,0,
2004-04-11, 00:40:01,VALID,918.788,VALID,0,VALID,100,VALID,-0.0169808,VALID,19.781,VALID,354,VALID,0.165234,
2004-04-11, 00:41:00,VALID,918.771,VALID,0,VALID,100,VALID,-0.0679233,VALID,19.7191,VALID,354,VALID,0.395139,
2004-04-11, 00:42:01,VALID,918.766,VALID,0,VALID,100,VALID,-0.0169808,VALID,19.6938,VALID,27,VALID,0.571801,
2004-04-11, 00:43:00,VALID,918.769,VALID,0,VALID,99.9842,VALID,0,VALID,19.6252,VALID,34,VALID,0.676525,
2004-04-11, 00:44:00,VALID,918.768,VALID,0,VALID,99.9756,VALID,-0.0169808,VALID,19.5832,VALID,36,VALID,0.699041,
2004-04-11, 00:45:00,VALID,918.775,VALID,0,VALID,100,VALID,-0.0679233,VALID,19.5909,VALID,37,VALID,0.56994,
2004-04-11, 00:46:00,VALID,918.761,VALID,0,VALID,100,VALID,-0.0509425,VALID,19.5904,VALID,37,VALID,0.531436,
2004-04-11, 00:47:01,VALID,918.753,VALID,0,VALID,100,VALID,-0.0679233,VALID,19.6135,VALID,42,VALID,0.510975,
2004-04-11, 00:48:00,VALID,918.736,VALID,0,VALID,100,VALID,-0.0509425,VALID,19.6128,VALID,47,VALID,0.516768,
2004-04-11, 00:49:00,VALID,918.735,VALID,0,VALID,100,VALID,-0.0169808,VALID,19.6294,VALID,55,VALID,0.350654,
2004-04-11, 00:50:01,VALID,918.732,VALID,0,VALID,100,VALID,-0.0169808,VALID,19.6356,VALID,55,VALID,0.174293,
2004-04-11, 00:51:00,VALID,918.728,VALID,0,VALID,100,VALID,0.0169808,VALID,19.6284,VALID,55,VALID,0.342478,
2004-04-11, 00:52:01,VALID,918.728,VALID,0,VALID,100,VALID,0,VALID,19.616,VALID,55,VALID,0.42832,
2004-04-11, 00:53:00,VALID,918.714,VALID,0,VALID,100,VALID,-0.0169808,VALID,19.6004,VALID,61,VALID,0.40997,
2004-04-11, 00:54:01,VALID,918.699,VALID,0,VALID,100,VALID,-0.0169808,VALID,19.5842,VALID,127,VALID,0.519159,
2004-04-11, 00:55:01,VALID,918.688,VALID,0,VALID,100,VALID,-0.0509425,VALID,19.5701,VALID,142,VALID,0.588663,
2004-04-11, 00:56:01,VALID,918.672,VALID,0,VALID,100,VALID,-0.0509425,VALID,19.5969,VALID,142,VALID,0.46317,
2004-04-11, 00:57:00,VALID,918.661,VALID,0,VALID,100,VALID,-0.0339617,VALID,19.6329,VALID,142,VALID,0.293241,
2004-04-11, 00:58:00,VALID,918.646,VALID,0,VALID,100,VALID,-0.0509425,VALID,19.6329,VALID,142,VALID,0.0948933,
2004-04-11, 00:59:00,VALID,918.625,VALID,0,VALID,100,VALID,-0.0169808,VALID,19.6195,VALID,142,VALID,0,
2004-04-11, 01:00:01,VALID,918.598,VALID,0,VALID,100,VALID,-0.0339617,VALID,19.6163,VALID,142,VALID,0,
2004-04-11, 01:01:01,VALID,918.576,VALID,0,VALID,100,VALID,-0.0169808,VALID,19.5939,VALID,142,VALID,0,
2004-04-11, 01:02:01,VALID,918.542,VALID,0,VALID,100,VALID,-0.0509425,VALID,19.5711,VALID,142,VALID,0,
2004-04-11, 01:03:01,VALID,918.529,VALID,0,VALID,100,VALID,-0.0679233,VALID,19.5646,VALID,142,VALID,0,
2004-04-11, 01:04:01,VALID,918.515,VALID,0,VALID,100,VALID,-0.0339617,VALID,19.578,VALID,142,VALID,0,
2004-04-11, 01:05:01,VALID,918.5,VALID,0,VALID,100,VALID,-0.0509425,VALID,19.5969,VALID,142,VALID,0,
2004-04-11, 01:06:01,VALID,918.492,VALID,0,VALID,100,VALID,-0.0509425,VALID,19.6394,VALID,142,VALID,0,
2004-04-11, 01:07:01,VALID,918.481,VALID,0,VALID,100,VALID,-0.0509425,VALID,19.6361,VALID,142,VALID,0.304506,
2004-04-11, 01:08:01,VALID,918.46,VALID,0,VALID,100,VALID,-0.0339617,VALID,19.626,VALID,142,VALID,0.394871,
2004-04-11, 01:09:01,VALID,918.444,VALID,0,VALID,100,VALID,-0.0679233,VALID,19.6135,VALID,142,VALID,0.394886,
2004-04-11, 01:10:01,VALID,918.424,VALID,0,VALID,100,VALID,-0.0679233,VALID,19.5748,VALID,142,VALID,0.261347,
2004-04-11, 01:11:01,VALID,918.394,VALID,0,VALID,100,VALID,-0.0509425,VALID,19.5681,VALID,142,VALID,0.113194,
2004-04-11, 01:12:01,VALID,918.361,VALID,0,VALID,100,VALID,-0.0509425,VALID,19.5455,VALID,142,VALID,0.465199,
2004-04-11, 01:13:01,VALID,918.331,VALID,0,VALID,100,VALID,-0.0849042,VALID,19.51,VALID,144,VALID,0.574033,
2004-04-11, 01:14:01,VALID,918.286,VALID,0,VALID,100,VALID,-0.0679233,VALID,19.5005,VALID,145,VALID,0.526708,
2004-04-11, 01:15:01,VALID,918.251,VALID,0,VALID,100,VALID,-0.0509425,VALID,19.5102,VALID,145,VALID,0.613281,
2004-04-11, 01:16:01,VALID,918.221,VALID,0,VALID,100,VALID,-0.0339617,VALID,19.5134,VALID,138,VALID,0.665396,
2004-04-11, 01:17:01,VALID,918.188,VALID,0,VALID,100,VALID,-0.0169808,VALID,19.5321,VALID,132,VALID,0.71532,
2004-04-11, 01:18:01,VALID,918.15,VALID,0,VALID,100,VALID,0,VALID,19.5383,VALID,125,VALID,0.490945,
2004-04-11, 01:19:01,VALID,918.125,VALID,0,VALID,100,VALID,0,VALID,19.5385,VALID,105,VALID,0.599144,
2004-04-11, 01:20:01,VALID,918.102,VALID,0,VALID,100,VALID,0.0169808,VALID,19.5311,VALID,77,VALID,0.803943,
2004-04-11, 01:21:01,VALID,918.086,VALID,0,VALID,100,VALID,0.0169808,VALID,19.5442,VALID,66,VALID,0.841933,
2004-04-11, 01:22:01,VALID,918.089,VALID,0,VALID,100,VALID,0.0169808,VALID,19.5671,VALID,66,VALID,0.627232,
2004-04-11, 01:23:01,VALID,918.082,VALID,0,VALID,100,VALID,0,VALID,19.5832,VALID,66,VALID,0.535251,
2004-04-11, 01:24:01,VALID,918.084,VALID,0,VALID,100,VALID,0.0169808,VALID,19.6056,VALID,66,VALID,0.472656,
2004-04-11, 01:25:01,VALID,918.073,VALID,0,VALID,100,VALID,0,VALID,19.6314,VALID,73,VALID,0.689732,
2004-04-11, 01:26:01,VALID,918.071,VALID,0,VALID,100,VALID,-0.0169808,VALID,19.6669,VALID,77,VALID,0.572856,
2004-04-11, 01:27:01,VALID,918.089,VALID,0,VALID,100,VALID,0,VALID,19.6672,VALID,78,VALID,0.44029,
2004-04-11, 01:28:01,VALID,918.091,VALID,0,VALID,100,VALID,0,VALID,19.664,VALID,78,VALID,0.370808,
2004-04-11, 01:29:01,VALID,918.083,VALID,0,VALID,100,VALID,0,VALID,19.6769,VALID,78,VALID,0.362043,
2004-04-11, 01:30:01,VALID,918.091,VALID,0,VALID,100,VALID,-0.0169808,VALID,19.6898,VALID,78,VALID,0.251488,
2004-04-11, 01:31:01,VALID,918.083,VALID,0,VALID,100,VALID,0,VALID,19.7027,VALID,78,VALID,0,
2004-04-11, 01:32:01,VALID,918.072,VALID,0,VALID,100,VALID,-0.0509425,VALID,19.7164,VALID,78,VALID,0.322218,
2004-04-11, 01:33:01,VALID,918.084,VALID,0,VALID,100,VALID,-0.101885,VALID,19.73,VALID,78,VALID,0.37832,
2004-04-11, 01:34:01,VALID,918.082,VALID,0,VALID,100,VALID,-0.101885,VALID,19.73,VALID,78,VALID,0.157853,
2004-04-11, 01:35:01,VALID,918.073,VALID,0,VALID,100,VALID,-0.101885,VALID,19.7596,VALID,78,VALID,0,
2004-04-11, 01:36:01,VALID,918.077,VALID,0,VALID,100,VALID,-0.101885,VALID,19.7822,VALID,78,VALID,0.165421,
2004-04-11, 01:37:00,VALID,918.064,VALID,0,VALID,100,VALID,-0.0849042,VALID,19.8076,VALID,78,VALID,0.272049,
2004-04-11, 01:38:00,VALID,918.063,VALID,0,VALID,100,VALID,-0.101885,VALID,19.8366,VALID,78,VALID,0.306176,
2004-04-11, 01:39:00,VALID,918.04,VALID,0,VALID,100,VALID,-0.118866,VALID,19.8699,VALID,78,VALID,0.221418,
2004-04-11, 01:40:00,VALID,918.022,VALID,0,VALID,100,VALID,-0.101885,VALID,19.8687,VALID,78,VALID,0.27381,
2004-04-11, 01:41:00,VALID,918.008,VALID,0,VALID,100,VALID,-0.0849042,VALID,19.895,VALID,78,VALID,0.153343,
2004-04-11, 01:42:00,VALID,917.994,VALID,0,VALID,100,VALID,-0.0849042,VALID,19.895,VALID,78,VALID,0.0747768,
2004-04-11, 01:43:00,VALID,917.999,VALID,0,VALID,100,VALID,-0.101885,VALID,19.9044,VALID,78,VALID,0,
2004-04-11, 01:44:00,VALID,918.012,VALID,0,VALID,100,VALID,-0.0849042,VALID,19.9007,VALID,78,VALID,0.128162,
2004-04-11, 01:45:00,VALID,918.011,VALID,0,VALID,100,VALID,-0.0849042,VALID,19.9171,VALID,78,VALID,0.197674,
2004-04-11, 01:46:00,VALID,918.008,VALID,0,VALID,100,VALID,-0.101885,VALID,19.9268,VALID,78,VALID,0.0239826,
2004-04-11, 01:47:00,VALID,917.996,VALID,0,VALID,100,VALID,-0.0339617,VALID,19.9549,VALID,78,VALID,0.00372024,
2004-04-11, 01:48:00,VALID,917.987,VALID,0,VALID,100,VALID,0,VALID,19.9705,VALID,78,VALID,0.0496528,
2004-04-11, 01:49:00,VALID,917.966,VALID,0,VALID,100,VALID,0.0169808,VALID,19.977,VALID,78,VALID,0,
2004-04-11, 01:50:00,VALID,917.943,VALID,0,VALID,100,VALID,0.0169808,VALID,19.967,VALID,78,VALID,0,
2004-04-11, 01:51:00,VALID,917.927,VALID,0,VALID,100,VALID,0.0169808,VALID,19.9802,VALID,78,VALID,0,
2004-04-11, 01:52:00,VALID,917.894,VALID,0,VALID,100,VALID,0.0169808,VALID,19.977,VALID,78,VALID,0,
2004-04-11, 01:53:00,VALID,917.87,VALID,0,VALID,100,VALID,0.0339617,VALID,19.9867,VALID,78,VALID,0,
2004-04-11, 01:54:00,VALID,917.839,VALID,0,VALID,100,VALID,0.0339617,VALID,19.9996,VALID,78,VALID,0,
2004-04-11, 01:55:00,VALID,917.82,VALID,0,VALID,100,VALID,0,VALID,19.9963,VALID,78,VALID,0,
2004-04-11, 01:56:00,VALID,917.787,VALID,0,VALID,100,VALID,0.0679233,VALID,19.9934,VALID,78,VALID,0,
2004-04-11, 01:57:00,VALID,917.765,VALID,0,VALID,100,VALID,0.0169808,VALID,20.0028,VALID,78,VALID,0.256214,
2004-04-11, 01:58:00,VALID,917.77,VALID,0,VALID,100,VALID,0.0169808,VALID,19.9832,VALID,78,VALID,0.452615,
2004-04-11, 01:59:00,VALID,917.778,VALID,0,VALID,100,VALID,0.0339617,VALID,19.977,VALID,78,VALID,0.449306,
2004-04-11, 02:00:00,VALID,917.807,VALID,0,VALID,100,VALID,0.0339617,VALID,19.9797,VALID,78,VALID,0.254934,
2004-04-11, 02:01:00,VALID,917.828,VALID,0,VALID,100,VALID,0.0169808,VALID,19.9832,VALID,78,VALID,0.225991,
2004-04-11, 02:02:00,VALID,917.838,VALID,0,VALID,100,VALID,-0.0169808,VALID,19.9874,VALID,78,VALID,0.419034,
2004-04-11, 02:03:00,VALID,917.843,VALID,0,VALID,100,VALID,-0.0849042,VALID,20.0041,VALID,91,VALID,0.804501,
2004-04-11, 02:04:00,VALID,917.856,VALID,0,VALID,100,VALID,-0.0679233,VALID,20.0205,VALID,96,VALID,0.699886,
2004-04-11, 02:05:00,VALID,917.84,VALID,0,VALID,100,VALID,-0.0679233,VALID,20.0137,VALID,113,VALID,0.764509,
2004-04-11, 02:06:00,VALID,917.824,VALID,0,VALID,100,VALID,-0.101885,VALID,20.0232,VALID,144,VALID,0.692649,
2004-04-11, 02:07:00,VALID,917.815,VALID,0,VALID,100,VALID,-0.0339617,VALID,20.0358,VALID,145,VALID,0.529018,
2004-04-11, 02:08:00,VALID,917.794,VALID,0,VALID,100,VALID,-0.0339617,VALID,20.0517,VALID,146,VALID,0.48056,
2004-04-11, 02:09:00,VALID,917.793,VALID,0,VALID,100,VALID,-0.0169808,VALID,20.0423,VALID,150,VALID,0.476563,
2004-04-11, 02:10:00,VALID,917.774,VALID,0,VALID,100,VALID,-0.0509425,VALID,20.059,VALID,150,VALID,0.402902,
2004-04-11, 02:11:00,VALID,917.769,VALID,0,VALID,100,VALID,-0.0509425,VALID,20.052,VALID,151,VALID,0.414435,
2004-04-11, 02:12:00,VALID,917.763,VALID,0,VALID,100,VALID,-0.0339617,VALID,20.0458,VALID,156,VALID,0.279042,
2004-04-11, 02:13:00,VALID,917.739,VALID,0,VALID,100,VALID,0,VALID,20.0421,VALID,156,VALID,0.259233,
2004-04-11, 02:14:00,VALID,917.724,VALID,0,VALID,100,VALID,-0.0849042,VALID,20.0423,VALID,156,VALID,0.148438,
2004-04-11, 02:15:00,VALID,917.715,VALID,0,VALID,100,VALID,-0.0509425,VALID,20.052,VALID,156,VALID,0.110263,
2004-04-11, 02:16:00,VALID,917.718,VALID,0,VALID,100,VALID,-0.0679233,VALID,20.0687,VALID,156,VALID,0.258929,
2004-04-11, 02:17:00,VALID,917.711,VALID,0,VALID,100,VALID,-0.0509425,VALID,20.0714,VALID,156,VALID,0.0848722,
2004-04-11, 02:18:00,VALID,917.696,VALID,0,VALID,100,VALID,-0.0509425,VALID,20.0582,VALID,156,VALID,0.153125,
2004-04-11, 02:19:00,VALID,917.675,VALID,0,VALID,100,VALID,-0.0339617,VALID,20.0585,VALID,156,VALID,0,
2004-04-11, 02:20:00,VALID,917.644,VALID,0,VALID,100,VALID,-0.0509425,VALID,20.0585,VALID,156,VALID,0,
2004-04-11, 02:21:00,VALID,917.629,VALID,0,VALID,100,VALID,-0.0169808,VALID,20.0679,VALID,156,VALID,0,
2004-04-11, 02:22:00,VALID,917.604,VALID,0,VALID,100,VALID,-0.0169808,VALID,20.084,VALID,156,VALID,0,
2004-04-11, 02:23:00,VALID,917.583,VALID,0,VALID,100,VALID,-0.0169808,VALID,20.0935,VALID,156,VALID,0,
2004-04-11, 02:24:00,VALID,917.571,VALID,0,VALID,100,VALID,-0.0339617,VALID,20.1131,VALID,156,VALID,0.0694247,
2004-04-11, 02:25:00,VALID,917.569,VALID,0,VALID,100,VALID,-0.0169808,VALID,20.1034,VALID,156,VALID,0.0639881,
2004-04-11, 02:26:00,VALID,917.576,VALID,0,VALID,100,VALID,-0.0509425,VALID,20.1096,VALID,156,VALID,0.0961119,
2004-04-11, 02:27:00,VALID,917.591,VALID,0,VALID,100,VALID,-0.0339617,VALID,20.1131,VALID,156,VALID,0,
2004-04-11, 02:28:00,VALID,917.607,VALID,0,VALID,100,VALID,-0.0339617,VALID,20.1161,VALID,156,VALID,0.138626,
2004-04-11, 02:29:00,VALID,917.622,VALID,0,VALID,100,VALID,-0.0339617,VALID,20.1298,VALID,156,VALID,0.0256177,
2004-04-11, 02:30:00,VALID,917.64,VALID,0,VALID,100,VALID,-0.0679233,VALID,20.1489,VALID,156,VALID,0.00800305,
2004-04-11, 02:31:00,VALID,917.634,VALID,0,VALID,100,VALID,-0.0679233,VALID,20.1752,VALID,156,VALID,0,
2004-04-11, 02:32:00,VALID,917.636,VALID,0,VALID,100,VALID,-0.0679233,VALID,20.1745,VALID,156,VALID,0.0197088,
2004-04-11, 02:33:00,VALID,917.64,VALID,0,VALID,100,VALID,-0.0509425,VALID,20.1944,VALID,156,VALID,0.0932292,
2004-04-11, 02:34:00,VALID,917.637,VALID,0,VALID,100,VALID,-0.0509425,VALID,20.2068,VALID,156,VALID,0.0756392,
2004-04-11, 02:35:00,VALID,917.616,VALID,0,VALID,100,VALID,-0.0339617,VALID,20.2194,VALID,156,VALID,0.0554497,
2004-04-11, 02:36:00,VALID,917.61,VALID,0,VALID,100,VALID,-0.0339617,VALID,20.2361,VALID,156,VALID,0,
2004-04-11, 02:37:00,VALID,917.595,VALID,0,VALID,100,VALID,-0.0849042,VALID,20.2398,VALID,156,VALID,0,
2004-04-11, 02:38:00,VALID,917.585,VALID,0,VALID,100,VALID,-0.0849042,VALID,20.2455,VALID,156,VALID,0,
2004-04-11, 02:39:00,VALID,917.577,VALID,0,VALID,100,VALID,-0.0509425,VALID,20.2587,VALID,156,VALID,0.00228659,
2004-04-11, 02:40:00,VALID,917.563,VALID,0,VALID,100,VALID,-0.0849042,VALID,20.2751,VALID,156,VALID,0.246528,
2004-04-11, 02:41:00,VALID,917.564,VALID,0,VALID,100,VALID,-0.0509425,VALID,20.2873,VALID,149,VALID,0.34189,
2004-04-11, 02:42:00,VALID,917.565,VALID,0,VALID,100,VALID,-0.0339617,VALID,20.3002,VALID,72,VALID,0.464236,
2004-04-11, 02:43:00,VALID,917.581,VALID,0,VALID,100,VALID,-0.0339617,VALID,20.2873,VALID,51,VALID,0.526563,
2004-04-11, 02:44:00,VALID,917.574,VALID,0,VALID,100,VALID,-0.0169808,VALID,20.2843,VALID,41,VALID,0.569169,
2004-04-11, 02:45:00,VALID,917.579,VALID,0,VALID,100,VALID,-0.0849042,VALID,20.2845,VALID,37,VALID,0.487926,
2004-04-11, 02:46:00,VALID,917.588,VALID,0,VALID,100,VALID,-0.0339617,VALID,20.2582,VALID,37,VALID,0.485263,
2004-04-11, 02:47:00,VALID,917.577,VALID,0,VALID,100,VALID,-0.0509425,VALID,20.2525,VALID,38,VALID,0.565696,
2004-04-11, 02:48:00,VALID,917.583,VALID,0,VALID,100,VALID,-0.0509425,VALID,20.2358,VALID,37,VALID,0.383557,
2004-04-11, 02:49:00,VALID,917.569,VALID,0,VALID,100,VALID,-0.0339617,VALID,20.2396,VALID,37,VALID,0.294695,
2004-04-11, 02:50:00,VALID,917.577,VALID,0,VALID,100,VALID,-0.0509425,VALID,20.2162,VALID,37,VALID,0.407252,
2004-04-11, 02:51:00,VALID,917.58,VALID,0,VALID,100,VALID,-0.0339617,VALID,20.2132,VALID,37,VALID,0.396875,
2004-04-11, 02:52:00,VALID,917.592,VALID,0,VALID,100,VALID,-0.0169808,VALID,20.2097,VALID,37,VALID,0.508832,
2004-04-11, 02:53:00,VALID,917.602,VALID,0,VALID,100,VALID,-0.0339617,VALID,20.2261,VALID,38,VALID,0.664971,
2004-04-11, 02:54:00,VALID,917.596,VALID,0,VALID,100,VALID,0,VALID,20.2227,VALID,44,VALID,0.812872,
2004-04-11, 02:55:00,VALID,917.621,VALID,0,VALID,100,VALID,0,VALID,20.2256,VALID,50,VALID,0.716992,
2004-04-11, 02:56:00,VALID,917.613,VALID,0,VALID,100,VALID,-0.0679233,VALID,20.2358,VALID,51,VALID,0.834077,
2004-04-11, 02:57:00,VALID,917.601,VALID,0,VALID,100,VALID,-0.0169808,VALID,20.2256,VALID,61,VALID,0.846354,
2004-04-11, 02:58:00,VALID,917.61,VALID,0,VALID,100,VALID,-0.0339617,VALID,20.2361,VALID,73,VALID,0.658975,
2004-04-11, 02:59:00,VALID,917.609,VALID,0,VALID,100,VALID,-0.0679233,VALID,20.2097,VALID,87,VALID,0.768415,
2004-04-11, 03:00:00,VALID,917.611,VALID,0,VALID,99.9967,VALID,-0.0679233,VALID,20.1998,VALID,92,VALID,0.734375,
2004-04-11, 03:01:00,VALID,917.615,VALID,0,VALID,100,VALID,-0.0339617,VALID,20.1869,VALID,85,VALID,0.450581,
2004-04-11, 03:02:00,VALID,917.615,VALID,0,VALID,100,VALID,0,VALID,20.1859,VALID,95,VALID,0.506722,
2004-04-11, 03:03:00,VALID,917.59,VALID,0,VALID,100,VALID,0.0339617,VALID,20.1757,VALID,116,VALID,0.41673,
2004-04-11, 03:04:00,VALID,917.591,VALID,0,VALID,100,VALID,0,VALID,20.1792,VALID,116,VALID,0.506669,
2004-04-11, 03:05:00,VALID,917.577,VALID,0,VALID,100,VALID,0.0169808,VALID,20.1864,VALID,117,VALID,0.787064,
2004-04-11, 03:06:00,VALID,917.573,VALID,0,VALID,100,VALID,0,VALID,20.1662,VALID,118,VALID,0.962209,
2004-04-11, 03:07:00,VALID,917.571,VALID,0,VALID,100,VALID,0.0679233,VALID,20.1565,VALID,124,VALID,0.92951,
2004-04-11, 03:08:00,VALID,917.578,VALID,0,VALID,99.9964,VALID,0.0339617,VALID,20.1605,VALID,138,VALID,0.759859,
2004-04-11, 03:09:00,VALID,917.585,VALID,0,VALID,99.971,VALID,0.0339617,VALID,20.1307,VALID,124,VALID,1.11879,
2004-04-11, 03:10:00,VALID,917.579,VALID,0,VALID,99.9392,VALID,0.0849042,VALID,20.1245,VALID,136,VALID,0.935268,
2004-04-11, 03:11:00,VALID,917.576,VALID,0,VALID,99.8947,VALID,0.0679233,VALID,20.0852,VALID,138,VALID,0.856105,
2004-04-11, 03:12:00,VALID,917.566,VALID,0,VALID,99.9189,VALID,0.0339617,VALID,20.0828,VALID,127,VALID,0.913881,
2004-04-11, 03:13:00,VALID,917.547,VALID,0,VALID,99.957,VALID,0.0339617,VALID,20.053,VALID,130,VALID,0.454649,
2004-04-11, 03:14:00,VALID,917.536,VALID,0,VALID,99.9494,VALID,0.0509425,VALID,20.0403,VALID,115,VALID,0.713914,
2004-04-11, 03:15:00,VALID,917.508,VALID,0,VALID,99.9977,VALID,0.0849042,VALID,20.0341,VALID,101,VALID,0.523438,
2004-04-11, 03:16:00,VALID,917.489,VALID,0,VALID,100,VALID,0,VALID,20.0271,VALID,68,VALID,0.322409,
2004-04-11, 03:17:00,VALID,917.47,VALID,0,VALID,100,VALID,0,VALID,20.0252,VALID,93,VALID,0.602834,
2004-04-11, 03:18:00,VALID,917.454,VALID,0,VALID,100,VALID,-0.0509425,VALID,20.0383,VALID,108,VALID,0.53924,
2004-04-11, 03:19:00,VALID,917.453,VALID,0,VALID,100,VALID,-0.0679233,VALID,20.0356,VALID,114,VALID,0.340234,
2004-04-11, 03:20:00,VALID,917.452,VALID,0,VALID,100,VALID,-0.0509425,VALID,20.0356,VALID,114,VALID,0.0838415,
2004-04-11, 03:21:00,VALID,917.439,VALID,0,VALID,100,VALID,-0.0679233,VALID,20.0383,VALID,114,VALID,0.113636,
2004-04-11, 03:22:00,VALID,917.436,VALID,0,VALID,100,VALID,-0.0339617,VALID,20.0512,VALID,111,VALID,0.277166,
2004-04-11, 03:23:00,VALID,917.407,VALID,0,VALID,100,VALID,-0.0339617,VALID,20.0838,VALID,60,VALID,0.636347,
2004-04-11, 03:24:00,VALID,917.397,VALID,0,VALID,100,VALID,-0.0339617,VALID,20.0967,VALID,56,VALID,0.65625,
2004-04-11, 03:25:00,VALID,917.393,VALID,0,VALID,100,VALID,-0.0169808,VALID,20.1029,VALID,52,VALID,0.690358,
2004-04-11, 03:26:00,VALID,917.371,VALID,0,VALID,100,VALID,-0.0169808,VALID,20.1024,VALID,38,VALID,0.781068,
2004-04-11, 03:27:00,VALID,917.367,VALID,0,VALID,100,VALID,-0.0679233,VALID,20.1096,VALID,32,VALID,0.989462,
2004-04-11, 03:28:00,VALID,917.376,VALID,0,VALID,100,VALID,-0.0849042,VALID,20.0965,VALID,33,VALID,1.0349,
2004-04-11, 03:29:00,VALID,917.378,VALID,0,VALID,100,VALID,-0.0509425,VALID,20.1002,VALID,33,VALID,0.999112,
2004-04-11, 03:30:00,VALID,917.385,VALID,0,VALID,100,VALID,-0.0509425,VALID,20.1064,VALID,48,VALID,0.961682,
2004-04-11, 03:31:00,VALID,917.39,VALID,0,VALID,100,VALID,-0.0509425,VALID,20.1002,VALID,63,VALID,0.900746,
2004-04-11, 03:32:00,VALID,917.399,VALID,0,VALID,100,VALID,-0.0169808,VALID,20.0967,VALID,61,VALID,0.549538,
2004-04-11, 03:33:00,VALID,917.408,VALID,0,VALID,100,VALID,-0.0169808,VALID,20.09,VALID,61,VALID,0.313542,
2004-04-11, 03:34:00,VALID,917.403,VALID,0,VALID,100,VALID,-0.0339617,VALID,20.0868,VALID,48,VALID,0.299183,
2004-04-11, 03:35:00,VALID,917.394,VALID,0,VALID,100,VALID,-0.0169808,VALID,20.0838,VALID,38,VALID,0.341146,
2004-04-11, 03:36:00,VALID,917.385,VALID,0,VALID,100,VALID,-0.0849042,VALID,20.0848,VALID,29,VALID,0.303267,
2004-04-11, 03:37:00,VALID,917.365,VALID,0,VALID,100,VALID,-0.0849042,VALID,20.0706,VALID,27,VALID,0.305729,
2004-04-11, 03:38:00,VALID,917.356,VALID,0,VALID,100,VALID,-0.0679233,VALID,20.0845,VALID,18,VALID,0.339026,
2004-04-11, 03:39:00,VALID,917.342,VALID,0,VALID,100,VALID,-0.0339617,VALID,20.0902,VALID,6,VALID,0.425967,